2023/04/30 00:00:00,35.6,15.6
2023/04/30 00:10:00,36.7,15.8
2023/04/30 00:20:00,37.4,15.6
2023/04/30 00:30:00,35.1,15.5
2023/04/30 00:40:00,33.6,15.6
2023/04/30 00:50:00,33.7,15.4
2023/04/30 01:00:00,34.4,15.8
2023/04/30 01:10:00,34.5,15.9
2023/04/30 01:20:00,32.3,15.9
2023/04/30 01:30:00,29.3,15.6
2023/04/30 01:40:00,29.1,15.6
2023/04/30 01:50:00,28.3,15.4
2023/04/30 02:00:00,23.9,15.8
2023/04/30 02:10:00,24.1,15.6
2023/04/30 02:20:00,24.9,15.6
2023/04/30 02:30:00,23.6,15.5
2023/04/30 02:40:00,23.2,15.3
2023/04/30 02:50:00,19.0,15.1
2023/04/30 03:00:00,19.0,15.2
2023/04/30 03:10:00,20.6,14.9
2023/04/30 03:20:00,24.7,14.7
2023/04/30 03:30:00,28.0,14.6
2023/04/30 03:40:00,33.8,14.6
2023/04/30 03:50:00,35.9,14.7
2023/04/30 04:00:00,36.0,14.6
2023/04/30 04:10:00,36.2,14.8
2023/04/30 04:20:00,36.3,14.5
2023/04/30 04:30:00,35.6,14.5
2023/04/30 04:40:00,30.9,14.5
2023/04/30 04:50:00,26.9,14.5
2023/04/30 05:00:00,26.4,14.4
2023/04/30 05:10:00,27.1,14.3
2023/04/30 05:20:00,28.4,14.5
2023/04/30 05:30:00,31.0,14.2
2023/04/30 05:40:00,30.5,14.2
2023/04/30 05:50:00,31.3,14.1
2023/04/30 06:00:00,30.6,13.9
2023/04/30 06:10:00,29.6,13.8
2023/04/30 06:20:00,27.7,13.4
2023/04/30 06:30:00,28.3,13.4
2023/04/30 06:40:00,29.0,13.5
2023/04/30 06:50:00,32.0,13.3
2023/04/30 07:00:00,33.8,13.4
2023/04/30 07:10:00,33.6,13.3
2023/04/30 07:20:00,31.9,13.2
2023/04/30 07:30:00,29.9,13.5
2023/04/30 07:40:00,33.3,14.1
2023/04/30 07:50:00,33.3,14.2
2023/04/30 08:00:00,30.6,14.4
2023/04/30 08:10:00,29.8,14.0
2023/04/30 08:20:00,29.9,14.8
2023/04/30 08:30:00,30.4,14.5
2023/04/30 08:40:00,31.2,14.6
2023/04/30 08:50:00,31.9,14.8
2023/04/30 09:00:00,33.0,14.3
2023/04/30 09:10:00,34.4,14.2
2023/04/30 09:20:00,34.1,14.1
2023/04/30 09:30:00,34.5,14.1
2023/04/30 09:40:00,33.5,14.3
2023/04/30 09:50:00,32.8,14.5
2023/04/30 10:00:00,33.3,14.5
2023/04/30 10:10:00,30.3,15.1
2023/04/30 10:20:00,30.3,16.0
2023/04/30 10:30:00,33.8,16.7
2023/04/30 10:40:00,34.5,17.8
2023/04/30 10:50:00,33.8,18.2
2023/04/30 11:00:00,34.0,18.4
2023/04/30 11:10:00,34.6,19.0
2023/04/30 11:20:00,32.2,18.5
2023/04/30 11:30:00,31.8,19.1
2023/04/30 11:40:00,32.5,19.3
2023/04/30 11:50:00,34.8,18.9
2023/04/30 12:00:00,34.1,19.3
2023/04/30 12:10:00,35.5,18.9
2023/04/30 12:20:00,35.5,18.8
2023/04/30 12:30:00,29.1,18.6
2023/04/30 12:40:00,32.3,19.5
2023/04/30 12:50:00,27.0,19.3
2023/04/30 13:00:00,30.2,19.8
2023/04/30 13:10:00,29.5,20.2
2023/04/30 13:20:00,32.7,21.0
2023/04/30 13:30:00,28.9,21.7
2023/04/30 13:40:00,22.3,22.2
2023/04/30 13:50:00,25.0,23.7
2023/04/30 14:00:00,34.7,22.5
2023/04/30 14:10:00,28.7,23.0
2023/04/30 14:20:00,23.4,22.0
2023/04/30 14:30:00,23.1,22.6
2023/04/30 14:40:00,21.3,22.1
2023/04/30 14:50:00,21.9,23.0
2023/04/30 15:00:00,20.9,23.2
2023/04/30 15:10:00,19.5,23.4
2023/04/30 15:20:00,23.2,22.5
2023/04/30 15:30:00,---,22.5
2023/04/30 15:40:00,---,23.5
2023/04/30 15:50:00,21.4,23.2
2023/04/30 16:00:00,22.4,23.2
2023/04/30 16:10:00,24.7,22.6
2023/04/30 16:20:00,23.9,21.7
2023/04/30 16:30:00,26.7,21.2
2023/04/30 16:40:00,26.1,22.2
2023/04/30 16:50:00,26.0,22.7
2023/04/30 17:00:00,25.1,20.8
2023/04/30 17:10:00,28.5,21.4
2023/04/30 17:20:00,29.4,21.3
2023/04/30 17:30:00,30.5,21.1
2023/04/30 17:40:00,31.5,20.6
2023/04/30 17:50:00,32.0,20.8
2023/04/30 18:00:00,32.0,19.2
2023/04/30 18:10:00,32.2,18.6
2023/04/30 18:20:00,33.0,17.6
2023/04/30 18:30:00,32.8,15.7
2023/04/30 18:40:00,30.6,14.7
2023/04/30 18:50:00,25.3,13.8
2023/04/30 19:00:00,24.2,12.5
2023/04/30 19:10:00,16.9,11.6
2023/04/30 19:20:00,27.2,11.0
2023/04/30 19:30:00,35.7,10.7
2023/04/30 19:40:00,37.5,10.2
2023/04/30 19:50:00,---,10.0
2023/04/30 20:00:00, 2.8, 9.7
2023/04/30 20:10:00, 1.9,10.2
2023/04/30 20:20:00, 0.8,10.2
2023/04/30 20:30:00,---, 9.5
2023/04/30 20:40:00,23.7, 9.6
2023/04/30 20:50:00, 1.6, 9.9
2023/04/30 21:00:00, 0.8, 9.5
2023/04/30 21:10:00, 0.2, 9.4
2023/04/30 21:20:00, 0.1, 8.9
2023/04/30 21:30:00, 0.2, 8.8
2023/04/30 21:40:00, 0.1, 8.4
2023/04/30 21:50:00, 0.0, 8.1
2023/04/30 22:00:00, 0.0, 8.2
2023/04/30 22:10:00, 0.0, 7.7
2023/04/30 22:20:00, 0.1, 7.8
2023/04/30 22:30:00, 0.2, 8.3
2023/04/30 22:40:00, 0.2, 8.3
2023/04/30 22:50:00, 0.1, 8.0
2023/04/30 23:00:00, 0.1, 8.0
2023/04/30 23:10:00, 0.1, 7.6
2023/04/30 23:20:00, 0.0, 7.2
2023/04/30 23:30:00, 0.0, 7.2
2023/04/30 23:40:00, 0.1, 7.4
2023/04/30 23:50:00, 0.1, 7.0
